Flag for U.S.A. Weather past 2 weeks in San Bernardino, California, U.S.A.

Now
93 °F

Sunny.


Feels Like: 89 °F
Forecast: 67 / 102 °F
Wind: 13 mph from West

Location: Riverside Municipal Airport

Current Time: Jul 23, 2014 at 6:18:49 PM

Latest Report: Jul 23, 2014 at 5:53 PM


Visibility: 10 mi

Pressure: 29.83 "Hg

Humidity: 20%

Dew point: 46 °F

Location of San BernardinoLocation

Historic Weather in San Bernardino — Graph

°F

San Bernardino temperature yesterday

Maximum temperature yesterday: 91 °F (at 4:53 PM)
Minimum temperature yesterday: 64 °F (at 5:53 AM)
Average temperature yesterday: 74 °F

Past Weeks' High & Low Weather Summary

 TemperatureHumidityPressure
High99 °F (Jul 23, 2:53 PM)91% (Jul 9, 5:53 AM)30.02 "Hg (Jul 9, 5:53 AM)
Low61 °F (Jul 18, 5:53 AM)17% (Jul 23, 1:53 PM)29.79 "Hg (Jul 13, 5:53 PM)
Average75 °F60%29.93 "Hg
* Reported Jul 8 4:53 PM — Jul 23 4:53 PM, San Bernardino, Weather by CustomWeather, © 2014

Note: Actual official high and low records may vary slightly from our data, if they occured in-between our weather recording intervals... More about our weather records

Advertising

San Bernardino weather history for previous 24 hours

 ConditionsComfort  
Time TempWeatherWind HumidityBarometerVisibility
4:53 PM
Jul 23
95 °FSunny.12 mph22%29.85 "Hg10 mi
3:53 PM97 °FSunny.10 mph20%29.85 "Hg10 mi
2:53 PM99 °FSunny.9 mph20%29.87 "Hg10 mi
1:53 PM98 °FSunny.9 mph17%29.89 "Hg10 mi
12:53 PM93 °FSunny.7 mph23%29.91 "Hg10 mi
11:53 AM92 °FSunny.5 mph23%29.93 "Hg10 mi
10:53 AM86 °FSunny.3 mph29%29.95 "Hg10 mi
9:53 AM82 °FSunny.3 mph34%29.96 "Hg10 mi
8:53 AM77 °FSunny.No wind44%29.97 "Hg10 mi
7:53 AM72 °FSunny.No wind52%29.98 "Hg10 mi
6:53 AM66 °FClear.No wind56%29.97 "Hg10 mi
5:53 AM64 °FClear.No wind68%29.96 "Hg10 mi
4:53 AM65 °FClear.No wind63%29.95 "Hg10 mi
3:53 AM67 °FClear.No wind55%29.96 "Hg10 mi
2:53 AM67 °FClear.3 mph55%29.96 "Hg10 mi
1:53 AM70 °FClear.No wind49%29.96 "Hg10 mi
12:53 AM72 °FClear.3 mph48%29.96 "Hg10 mi
10:53 PM
Jul 22
74 °FClear.No wind45%29.97 "Hg10 mi
9:53 PM77 °FClear.3 mph37%29.97 "Hg10 mi
8:53 PM79 °FSunny.8 mph34%29.96 "Hg10 mi
7:53 PM81 °FSunny.9 mph34%29.95 "Hg10 mi
6:53 PM85 °FSunny.14 mph34%29.94 "Hg10 mi
Weather by CustomWeather, © 2014

See weather overviewHow to use our weather pages